Powrót do katalogu

VisionCube

AktywnyNaukaSSO
NORAD 43822·PAYLOAD·🇰🇷 South Korea

Wystrzelony Dec 3, 2018 z Vandenberg Space Force Base

Loading…

Następne Przeloty (najbliższe 24 godziny)

TLE

ŚwieżeSource: Space-Track

Epoka: Sep 14, 2026, 08:58 UTC

1 43822U 18099BS  26257.37383681  .00003168  00000-0  17194-3 0  9990
2 43822  97.4227 305.3875 0008831  50.8644 309.3372 15.15228827419721

Śledź VisionCube w czasie rzeczywistym z AllMySat

Download on the App Store